Year,Month,Day,Hour,Minute,Value (Times are PST for temperature in C)
2007,09,22,00,00,12.00
2007,09,22,00,01,12.00
2007,09,22,00,02,12.00
2007,09,22,00,03,11.90
2007,09,22,00,04,11.90
2007,09,22,00,05,11.90
2007,09,22,00,06,11.90
2007,09,22,00,07,11.90
2007,09,22,00,08,11.80
2007,09,22,00,09,11.80
2007,09,22,00,10,11.80
2007,09,22,00,11,11.80
2007,09,22,00,12,11.80
2007,09,22,00,13,11.80
2007,09,22,00,14,11.70
2007,09,22,00,15,11.70
2007,09,22,00,16,11.70
2007,09,22,00,17,11.70
2007,09,22,00,18,11.70
2007,09,22,00,19,11.60
2007,09,22,00,20,11.60
2007,09,22,00,21,11.60
2007,09,22,00,22,11.60
2007,09,22,00,23,11.60
2007,09,22,00,24,11.60
2007,09,22,00,25,11.60
2007,09,22,00,26,11.60
2007,09,22,00,27,11.60
2007,09,22,00,28,11.60
2007,09,22,00,29,11.60
2007,09,22,00,30,11.60
2007,09,22,00,31,11.60
2007,09,22,00,32,11.60
2007,09,22,00,33,11.60
2007,09,22,00,34,11.60
2007,09,22,00,35,11.60
2007,09,22,00,36,11.60
2007,09,22,00,37,11.60
2007,09,22,00,38,11.60
2007,09,22,00,39,11.60
2007,09,22,00,40,11.60
2007,09,22,00,41,11.60
2007,09,22,00,42,11.60
2007,09,22,00,43,11.60
2007,09,22,00,44,11.60
2007,09,22,00,45,11.60
2007,09,22,00,46,11.60
2007,09,22,00,47,11.60
2007,09,22,00,48,11.60
2007,09,22,00,49,11.60
2007,09,22,00,50,11.50
2007,09,22,00,51,11.40
2007,09,22,00,52,11.40
2007,09,22,00,53,11.40
2007,09,22,00,54,11.40
2007,09,22,00,55,11.40
2007,09,22,00,56,11.40
2007,09,22,00,57,11.40
2007,09,22,00,58,11.40
2007,09,22,00,59,11.40
2007,09,22,01,00,11.40
2007,09,22,01,01,11.40
2007,09,22,01,02,11.40
2007,09,22,01,03,11.40
2007,09,22,01,04,11.40
2007,09,22,01,05,11.40
2007,09,22,01,06,11.40
2007,09,22,01,07,11.40
2007,09,22,01,08,11.40
2007,09,22,01,09,11.40
2007,09,22,01,10,11.40
2007,09,22,01,11,11.40
2007,09,22,01,12,11.40
2007,09,22,01,13,11.40
2007,09,22,01,14,11.40
2007,09,22,01,15,11.40
2007,09,22,01,16,11.40
2007,09,22,01,17,11.30
2007,09,22,01,18,11.30
2007,09,22,01,19,11.30
2007,09,22,01,20,11.30
2007,09,22,01,21,11.20
2007,09,22,01,22,11.20
2007,09,22,01,23,11.20
2007,09,22,01,24,11.20
2007,09,22,01,25,11.20
2007,09,22,01,26,11.20
2007,09,22,01,27,11.20
2007,09,22,01,28,11.20
2007,09,22,01,29,11.10
2007,09,22,01,30,11.10
2007,09,22,01,31,11.10
2007,09,22,01,32,11.10
2007,09,22,01,33,11.10
2007,09,22,01,34,11.10
2007,09,22,01,35,11.10
2007,09,22,01,36,11.10
2007,09,22,01,37,11.10
2007,09,22,01,38,11.10
2007,09,22,01,39,11.10
2007,09,22,01,40,11.10
2007,09,22,01,41,11.10
2007,09,22,01,42,11.10
2007,09,22,01,43,11.10
2007,09,22,01,44,11.10
2007,09,22,01,45,11.10
2007,09,22,01,46,11.00
2007,09,22,01,47,10.90
2007,09,22,01,48,11.00
2007,09,22,01,49,11.10
2007,09,22,01,50,11.10
2007,09,22,01,51,11.10
2007,09,22,01,52,11.10
2007,09,22,01,53,11.10
2007,09,22,01,54,11.10
2007,09,22,01,55,11.10
2007,09,22,01,56,11.10
2007,09,22,01,57,11.10
2007,09,22,01,58,11.10
2007,09,22,01,59,11.20
2007,09,22,02,00,11.20
2007,09,22,02,01,11.20
2007,09,22,02,02,11.20
2007,09,22,02,03,11.20
2007,09,22,02,04,11.20
2007,09,22,02,05,11.20
2007,09,22,02,06,11.20
2007,09,22,02,07,11.20
2007,09,22,02,08,11.20
2007,09,22,02,09,11.20
2007,09,22,02,10,11.20
2007,09,22,02,11,11.20
2007,09,22,02,12,11.20
2007,09,22,02,13,11.20
2007,09,22,02,14,11.10
2007,09,22,02,15,11.20
2007,09,22,02,16,11.20
2007,09,22,02,17,11.20
2007,09,22,02,18,11.20
2007,09,22,02,19,11.20
2007,09,22,02,20,11.20
2007,09,22,02,21,11.20
2007,09,22,02,22,11.30
2007,09,22,02,23,11.30
2007,09,22,02,24,11.30
2007,09,22,02,25,11.30
2007,09,22,02,26,11.30
2007,09,22,02,27,11.40
2007,09,22,02,28,11.40
2007,09,22,02,29,11.40
2007,09,22,02,30,11.40
2007,09,22,02,31,11.40
2007,09,22,02,32,11.40
2007,09,22,02,33,11.40
2007,09,22,02,34,11.40
2007,09,22,02,35,11.40
2007,09,22,02,36,11.40
2007,09,22,02,37,11.40
2007,09,22,02,38,11.40
2007,09,22,02,39,11.40
2007,09,22,02,40,11.40
2007,09,22,02,41,11.40
2007,09,22,02,42,11.40
2007,09,22,02,43,11.40
2007,09,22,02,44,11.40
2007,09,22,02,45,11.40
2007,09,22,02,46,11.40
2007,09,22,02,47,11.40
2007,09,22,02,48,11.40
2007,09,22,02,49,11.40
2007,09,22,02,50,11.40
2007,09,22,02,51,11.30
2007,09,22,02,52,11.30
2007,09,22,02,53,11.30
2007,09,22,02,54,11.30
2007,09,22,02,55,11.30
2007,09,22,02,56,11.30
2007,09,22,02,57,11.30
2007,09,22,02,58,11.30
2007,09,22,02,59,11.20
2007,09,22,03,00,11.20
2007,09,22,03,01,11.20
2007,09,22,03,02,11.20
2007,09,22,03,03,11.10
2007,09,22,03,04,11.10
2007,09,22,03,05,11.10
2007,09,22,03,06,11.10
2007,09,22,03,07,11.10
2007,09,22,03,08,11.10
2007,09,22,03,09,11.10
2007,09,22,03,10,11.10
2007,09,22,03,11,11.10
2007,09,22,03,12,11.10
2007,09,22,03,13,11.10
2007,09,22,03,14,11.10
2007,09,22,03,15,11.00
2007,09,22,03,16,10.90
2007,09,22,03,17,10.90
2007,09,22,03,18,10.90
2007,09,22,03,19,10.90
2007,09,22,03,20,10.90
2007,09,22,03,21,10.90
2007,09,22,03,22,10.90
2007,09,22,03,23,10.90
2007,09,22,03,24,10.90
2007,09,22,03,25,10.90
2007,09,22,03,26,10.90
2007,09,22,03,27,10.90
2007,09,22,03,28,10.90
2007,09,22,03,29,10.90
2007,09,22,03,30,10.90
2007,09,22,03,31,10.90
2007,09,22,03,32,10.90
2007,09,22,03,33,10.80
2007,09,22,03,34,10.80
2007,09,22,03,35,10.80
2007,09,22,03,36,10.70
2007,09,22,03,37,10.70
2007,09,22,03,38,10.70
2007,09,22,03,39,10.70
2007,09,22,03,40,10.70
2007,09,22,03,41,10.70
2007,09,22,03,42,10.70
2007,09,22,03,43,10.70
2007,09,22,03,44,10.70
2007,09,22,03,45,10.70
2007,09,22,03,46,10.70
2007,09,22,03,47,10.70
2007,09,22,03,48,10.70
2007,09,22,03,49,10.70
2007,09,22,03,50,10.60
2007,09,22,03,51,10.60
2007,09,22,03,52,10.60
2007,09,22,03,53,10.60
2007,09,22,03,54,10.60
2007,09,22,03,55,10.50
2007,09,22,03,56,10.40
2007,09,22,03,57,10.40
2007,09,22,03,58,10.40
2007,09,22,03,59,10.40
2007,09,22,04,00,10.40
2007,09,22,04,01,10.30
2007,09,22,04,02,10.30
2007,09,22,04,03,10.30
2007,09,22,04,04,10.30
2007,09,22,04,05,10.30
2007,09,22,04,06,10.30
2007,09,22,04,07,10.30
2007,09,22,04,08,10.30
2007,09,22,04,09,10.30
2007,09,22,04,10,10.20
2007,09,22,04,11,10.20
2007,09,22,04,12,10.20
2007,09,22,04,13,10.30
2007,09,22,04,14,10.20
2007,09,22,04,15,10.30
2007,09,22,04,16,10.30
2007,09,22,04,17,10.30
2007,09,22,04,18,10.30
2007,09,22,04,19,10.30
2007,09,22,04,20,10.30
2007,09,22,04,21,10.30
2007,09,22,04,22,10.30
2007,09,22,04,23,10.40
2007,09,22,04,24,10.40
2007,09,22,04,25,10.40
2007,09,22,04,26,10.40
2007,09,22,04,27,10.40
2007,09,22,04,28,10.50
2007,09,22,04,29,10.60
2007,09,22,04,30,10.60
2007,09,22,04,31,10.60
2007,09,22,04,32,10.60
2007,09,22,04,33,10.60
2007,09,22,04,34,10.60
2007,09,22,04,35,10.60
2007,09,22,04,36,10.70
2007,09,22,04,37,10.70
2007,09,22,04,38,10.70
2007,09,22,04,39,10.80
2007,09,22,04,40,10.80
2007,09,22,04,41,10.80
2007,09,22,04,42,10.90
2007,09,22,04,43,10.80
2007,09,22,04,44,10.80
2007,09,22,04,45,10.80
2007,09,22,04,46,10.80
2007,09,22,04,47,10.80
2007,09,22,04,48,10.80
2007,09,22,04,49,10.80
2007,09,22,04,50,10.70
2007,09,22,04,51,10.70
2007,09,22,04,52,10.70
2007,09,22,04,53,10.70
2007,09,22,04,54,10.70
2007,09,22,04,55,10.70
2007,09,22,04,56,10.60
2007,09,22,04,57,10.60
2007,09,22,04,58,10.60
2007,09,22,04,59,10.60
2007,09,22,05,00,10.60
2007,09,22,05,01,10.60
2007,09,22,05,02,10.60
2007,09,22,05,03,10.60
2007,09,22,05,04,10.60
2007,09,22,05,05,10.60
2007,09,22,05,06,10.60
2007,09,22,05,07,10.60
2007,09,22,05,08,10.60
2007,09,22,05,09,10.60
2007,09,22,05,10,10.60
2007,09,22,05,11,10.60
2007,09,22,05,12,10.60
2007,09,22,05,13,10.50
2007,09,22,05,14,10.40
2007,09,22,05,15,10.40
2007,09,22,05,16,10.40
2007,09,22,05,17,10.40
2007,09,22,05,18,10.40
2007,09,22,05,19,10.40
2007,09,22,05,20,10.40
2007,09,22,05,21,10.40
2007,09,22,05,22,10.40
2007,09,22,05,23,10.30
2007,09,22,05,24,10.30
2007,09,22,05,25,10.30
2007,09,22,05,26,10.30
2007,09,22,05,27,10.30
2007,09,22,05,28,10.30
2007,09,22,05,29,10.20
2007,09,22,05,30,10.20
2007,09,22,05,31,10.20
2007,09,22,05,32,10.20
2007,09,22,05,33,10.20
2007,09,22,05,34,10.20
2007,09,22,05,35,10.10
2007,09,22,05,36,10.10
2007,09,22,05,37,10.10
2007,09,22,05,38,10.10
2007,09,22,05,39,10.10
2007,09,22,05,40,10.10
2007,09,22,05,41,9.90
2007,09,22,05,42,9.90
2007,09,22,05,43,9.90
2007,09,22,05,44,9.90
2007,09,22,05,45,9.90
2007,09,22,05,46,9.90
2007,09,22,05,47,9.90
2007,09,22,05,48,9.80
2007,09,22,05,49,9.80
2007,09,22,05,50,9.80
2007,09,22,05,51,9.80
2007,09,22,05,52,9.80
2007,09,22,05,53,9.70
2007,09,22,05,54,9.70
2007,09,22,05,55,9.70
2007,09,22,05,56,9.70
2007,09,22,05,57,9.70
2007,09,22,05,58,9.70
2007,09,22,05,59,9.70
2007,09,22,06,00,9.70
2007,09,22,06,01,9.70
2007,09,22,06,02,9.70
2007,09,22,06,03,9.70
2007,09,22,06,04,9.70
2007,09,22,06,05,9.70
2007,09,22,06,06,9.70
2007,09,22,06,07,9.70
2007,09,22,06,08,9.70
2007,09,22,06,09,9.80
2007,09,22,06,10,9.80
2007,09,22,06,11,9.80
2007,09,22,06,12,9.80
2007,09,22,06,13,9.70
2007,09,22,06,14,9.70
2007,09,22,06,15,9.70
2007,09,22,06,16,9.70
2007,09,22,06,17,9.70
2007,09,22,06,18,9.70
2007,09,22,06,19,9.60
2007,09,22,06,20,9.60
2007,09,22,06,21,9.60
2007,09,22,06,22,9.50
2007,09,22,06,23,9.50
2007,09,22,06,24,9.50
2007,09,22,06,25,9.40
2007,09,22,06,26,9.40
2007,09,22,06,27,9.40
2007,09,22,06,28,9.40
2007,09,22,06,29,9.40
2007,09,22,06,30,9.40
2007,09,22,06,31,9.40
2007,09,22,06,32,9.40
2007,09,22,06,33,9.40
2007,09,22,06,34,9.40
2007,09,22,06,35,9.40
2007,09,22,06,36,9.40
2007,09,22,06,37,9.40
2007,09,22,06,38,9.40
2007,09,22,06,39,9.40
2007,09,22,06,40,9.40
2007,09,22,06,41,9.40
2007,09,22,06,42,9.40
2007,09,22,06,43,9.40
2007,09,22,06,44,9.40
2007,09,22,06,45,9.40
2007,09,22,06,46,9.40
2007,09,22,06,47,9.30
2007,09,22,06,48,9.30
2007,09,22,06,49,9.30
2007,09,22,06,50,9.20
2007,09,22,06,51,9.20
2007,09,22,06,52,9.20
2007,09,22,06,53,9.20
2007,09,22,06,54,9.20
2007,09,22,06,55,9.20
2007,09,22,06,56,9.20
2007,09,22,06,57,9.20
2007,09,22,06,58,9.20
2007,09,22,06,59,9.20
2007,09,22,07,00,9.20
2007,09,22,07,01,9.20
2007,09,22,07,02,9.20
2007,09,22,07,03,9.20
2007,09,22,07,04,9.20
2007,09,22,07,05,9.20
2007,09,22,07,06,9.20
2007,09,22,07,07,9.20
2007,09,22,07,08,9.20
2007,09,22,07,09,9.20
2007,09,22,07,10,9.20
2007,09,22,07,11,9.20
2007,09,22,07,12,9.20
2007,09,22,07,13,9.20
2007,09,22,07,14,9.20
2007,09,22,07,15,9.30
2007,09,22,07,16,9.30
2007,09,22,07,17,9.30
2007,09,22,07,18,9.30
2007,09,22,07,19,9.30
2007,09,22,07,20,9.30
2007,09,22,07,21,9.30
2007,09,22,07,22,9.40
2007,09,22,07,23,9.40
2007,09,22,07,24,9.50
2007,09,22,07,25,9.50
2007,09,22,07,26,9.50
2007,09,22,07,27,9.50
2007,09,22,07,28,9.60
2007,09,22,07,29,9.70
2007,09,22,07,30,9.70
2007,09,22,07,31,9.70
2007,09,22,07,32,9.70
2007,09,22,07,33,9.80
2007,09,22,07,34,9.90
2007,09,22,07,35,9.90
2007,09,22,07,36,10.00
2007,09,22,07,37,10.10
2007,09,22,07,38,10.10
2007,09,22,07,39,10.10
2007,09,22,07,40,10.10
2007,09,22,07,41,10.10
2007,09,22,07,42,10.10
2007,09,22,07,43,10.10
2007,09,22,07,44,10.10
2007,09,22,07,45,10.20
2007,09,22,07,46,10.20
2007,09,22,07,47,10.20
2007,09,22,07,48,10.30
2007,09,22,07,49,10.30
2007,09,22,07,50,10.40
2007,09,22,07,51,10.40
2007,09,22,07,52,10.40
2007,09,22,07,53,10.40
2007,09,22,07,54,10.50
2007,09,22,07,55,10.60
2007,09,22,07,56,10.60
2007,09,22,07,57,10.60
2007,09,22,07,58,10.60
2007,09,22,07,59,10.70
2007,09,22,08,00,10.70
2007,09,22,08,01,10.80
2007,09,22,08,02,10.80
2007,09,22,08,03,10.90
2007,09,22,08,04,10.90
2007,09,22,08,05,11.00
2007,09,22,08,06,11.10
2007,09,22,08,07,11.10
2007,09,22,08,08,11.20
2007,09,22,08,09,11.20
2007,09,22,08,10,11.30
2007,09,22,08,11,11.30
2007,09,22,08,12,11.40
2007,09,22,08,13,11.50
2007,09,22,08,14,11.60
2007,09,22,08,15,11.60
2007,09,22,08,16,11.70
2007,09,22,08,17,11.70
2007,09,22,08,18,11.70
2007,09,22,08,19,11.70
2007,09,22,08,20,11.70
2007,09,22,08,21,11.70
2007,09,22,08,22,11.70
2007,09,22,08,23,11.80
2007,09,22,08,24,11.80
2007,09,22,08,25,11.80
2007,09,22,08,26,11.80
2007,09,22,08,27,11.80
2007,09,22,08,28,11.80
2007,09,22,08,29,11.80
2007,09,22,08,30,11.80
2007,09,22,08,31,11.80
2007,09,22,08,32,11.90
2007,09,22,08,33,11.90
2007,09,22,08,34,11.90
2007,09,22,08,35,12.00
2007,09,22,08,36,12.00
2007,09,22,08,37,12.20
2007,09,22,08,38,12.20
2007,09,22,08,39,12.30
2007,09,22,08,40,12.40
2007,09,22,08,41,12.50
2007,09,22,08,42,12.60
2007,09,22,08,43,12.60
2007,09,22,08,44,12.60
2007,09,22,08,45,12.70
2007,09,22,08,46,12.70
2007,09,22,08,47,12.70
2007,09,22,08,48,12.80
2007,09,22,08,49,12.80
2007,09,22,08,50,12.80
2007,09,22,08,51,12.80
2007,09,22,08,52,12.80
2007,09,22,08,53,12.80
2007,09,22,08,54,12.80
2007,09,22,08,55,12.90
2007,09,22,08,56,13.00
2007,09,22,08,57,13.00
2007,09,22,08,58,13.00
2007,09,22,08,59,13.10
2007,09,22,09,00,13.20
2007,09,22,09,01,13.20
2007,09,22,09,02,13.30
2007,09,22,09,03,13.30
2007,09,22,09,04,13.30
2007,09,22,09,05,13.30
2007,09,22,09,06,13.30
2007,09,22,09,07,13.40
2007,09,22,09,08,13.40
2007,09,22,09,09,13.30
2007,09,22,09,10,13.30
2007,09,22,09,11,13.30
2007,09,22,09,12,13.30
2007,09,22,09,13,13.40
2007,09,22,09,14,13.50
2007,09,22,09,15,13.60
2007,09,22,09,16,13.70
2007,09,22,09,17,13.70
2007,09,22,09,18,13.80
2007,09,22,09,19,13.90
2007,09,22,09,20,13.90
2007,09,22,09,21,14.00
2007,09,22,09,22,14.10
2007,09,22,09,23,14.10
2007,09,22,09,24,14.20
2007,09,22,09,25,14.20
2007,09,22,09,26,14.20
2007,09,22,09,27,14.10
2007,09,22,09,28,14.00
2007,09,22,09,29,13.90
2007,09,22,09,30,13.90
2007,09,22,09,31,13.80
2007,09,22,09,32,13.80
2007,09,22,09,33,13.70
2007,09,22,09,34,13.70
2007,09,22,09,35,13.70
2007,09,22,09,36,13.70
2007,09,22,09,37,13.70
2007,09,22,09,38,13.70
2007,09,22,09,39,13.70
2007,09,22,09,40,13.70
2007,09,22,09,41,13.70
2007,09,22,09,42,13.70
2007,09,22,09,43,13.70
2007,09,22,09,44,13.80
2007,09,22,09,45,13.80
2007,09,22,09,46,13.90
2007,09,22,09,47,13.90
2007,09,22,09,48,14.00
2007,09,22,09,49,14.00
2007,09,22,09,50,14.10
2007,09,22,09,51,14.20
2007,09,22,09,52,14.20
2007,09,22,09,53,14.20
2007,09,22,09,54,14.10
2007,09,22,09,55,14.10
2007,09,22,09,56,14.10
2007,09,22,09,57,14.10
2007,09,22,09,58,14.20
2007,09,22,09,59,14.20
2007,09,22,10,00,14.20
2007,09,22,10,01,14.20
2007,09,22,10,02,14.30
2007,09,22,10,03,14.40
2007,09,22,10,04,14.40
2007,09,22,10,05,14.50
2007,09,22,10,06,14.50
2007,09,22,10,07,14.50
2007,09,22,10,08,14.50
2007,09,22,10,09,14.40
2007,09,22,10,10,14.40
2007,09,22,10,11,14.40
2007,09,22,10,12,14.40
2007,09,22,10,13,14.30
2007,09,22,10,14,14.30
2007,09,22,10,15,14.30
2007,09,22,10,16,14.40
2007,09,22,10,17,14.40
2007,09,22,10,18,14.40
2007,09,22,10,19,14.50
2007,09,22,10,20,14.50
2007,09,22,10,21,14.60
2007,09,22,10,22,14.60
2007,09,22,10,23,14.70
2007,09,22,10,24,14.70
2007,09,22,10,25,14.80
2007,09,22,10,26,14.80
2007,09,22,10,27,14.70
2007,09,22,10,28,14.70
2007,09,22,10,29,14.70
2007,09,22,10,30,14.80
2007,09,22,10,31,14.80
2007,09,22,10,32,14.90
2007,09,22,10,33,15.00
2007,09,22,10,34,15.00
2007,09,22,10,35,15.10
2007,09,22,10,36,15.20
2007,09,22,10,37,15.30
2007,09,22,10,38,15.50
2007,09,22,10,39,15.60
2007,09,22,10,40,15.80
2007,09,22,10,41,15.90
2007,09,22,10,42,15.90
2007,09,22,10,43,15.80
2007,09,22,10,44,15.80
2007,09,22,10,45,15.80
2007,09,22,10,46,15.80
2007,09,22,10,47,15.70
2007,09,22,10,48,15.70
2007,09,22,10,49,15.70
2007,09,22,10,50,15.60
2007,09,22,10,51,15.60
2007,09,22,10,52,15.60
2007,09,22,10,53,15.60
2007,09,22,10,54,15.60
2007,09,22,10,55,15.60
2007,09,22,10,56,15.70
2007,09,22,10,57,15.70
2007,09,22,10,58,15.70
2007,09,22,10,59,15.70
2007,09,22,11,00,15.70
2007,09,22,11,01,15.70
2007,09,22,11,02,15.80
2007,09,22,11,03,15.80
2007,09,22,11,04,15.80
2007,09,22,11,05,15.90
2007,09,22,11,06,16.00
2007,09,22,11,07,16.10
2007,09,22,11,08,16.20
2007,09,22,11,09,16.30
2007,09,22,11,10,16.30
2007,09,22,11,11,16.40
2007,09,22,11,12,16.40
2007,09,22,11,13,16.40
2007,09,22,11,14,16.40
2007,09,22,11,15,16.40
2007,09,22,11,16,16.40
2007,09,22,11,17,16.30
2007,09,22,11,18,16.30
2007,09,22,11,19,16.30
2007,09,22,11,20,16.30
2007,09,22,11,21,16.30
2007,09,22,11,22,16.30
2007,09,22,11,23,16.30
2007,09,22,11,24,16.40
2007,09,22,11,25,16.40
2007,09,22,11,26,16.40
2007,09,22,11,27,16.40
2007,09,22,11,28,16.40
2007,09,22,11,29,16.30
2007,09,22,11,30,16.30
2007,09,22,11,31,16.20
2007,09,22,11,32,16.20
2007,09,22,11,33,16.10
2007,09,22,11,34,16.20
2007,09,22,11,35,16.20
2007,09,22,11,36,16.20
2007,09,22,11,37,16.30
2007,09,22,11,38,16.20
2007,09,22,11,39,16.20
2007,09,22,11,40,16.20
2007,09,22,11,41,16.10
2007,09,22,11,42,16.10
2007,09,22,11,43,16.20
2007,09,22,11,44,16.30
2007,09,22,11,45,16.40
2007,09,22,11,46,16.40
2007,09,22,11,47,16.50
2007,09,22,11,48,16.60
2007,09,22,11,49,16.70
2007,09,22,11,50,16.80
2007,09,22,11,51,16.90
2007,09,22,11,52,16.90
2007,09,22,11,53,16.90
2007,09,22,11,54,16.80
2007,09,22,11,55,16.80
2007,09,22,11,56,16.70
2007,09,22,11,57,16.70
2007,09,22,11,58,16.70
2007,09,22,11,59,16.70
2007,09,22,12,00,16.70
2007,09,22,12,01,16.70
2007,09,22,12,02,16.70
2007,09,22,12,03,16.80
2007,09,22,12,04,16.90
2007,09,22,12,05,17.00
2007,09,22,12,06,17.10
2007,09,22,12,07,17.10
2007,09,22,12,08,17.10
2007,09,22,12,09,17.10
2007,09,22,12,10,17.10
2007,09,22,12,11,17.10
2007,09,22,12,12,17.10
2007,09,22,12,13,17.20
2007,09,22,12,14,17.20
2007,09,22,12,15,17.30
2007,09,22,12,16,17.40
2007,09,22,12,17,17.50
2007,09,22,12,18,17.50
2007,09,22,12,19,17.60
2007,09,22,12,20,17.70
2007,09,22,12,21,17.90
2007,09,22,12,22,18.00
2007,09,22,12,23,18.00
2007,09,22,12,24,17.80
2007,09,22,12,25,17.60
2007,09,22,12,26,17.50
2007,09,22,12,27,17.40
2007,09,22,12,28,17.50
2007,09,22,12,29,17.40
2007,09,22,12,30,17.30
2007,09,22,12,31,17.30
2007,09,22,12,32,17.30
2007,09,22,12,33,17.30
2007,09,22,12,34,17.30
2007,09,22,12,35,17.30
2007,09,22,12,36,17.40
2007,09,22,12,37,17.40
2007,09,22,12,38,17.40
2007,09,22,12,39,17.40
2007,09,22,12,40,17.40
2007,09,22,12,41,17.40
2007,09,22,12,42,17.30
2007,09,22,12,43,17.30
2007,09,22,12,44,17.30
2007,09,22,12,45,17.20
2007,09,22,12,46,17.10
2007,09,22,12,47,17.00
2007,09,22,12,48,17.00
2007,09,22,12,49,16.90
2007,09,22,12,50,16.90
2007,09,22,12,51,16.80
2007,09,22,12,52,16.70
2007,09,22,12,53,16.70
2007,09,22,12,54,16.60
2007,09,22,12,55,16.50
2007,09,22,12,56,16.40
2007,09,22,12,57,16.40
2007,09,22,12,58,16.30
2007,09,22,12,59,16.30
2007,09,22,13,00,16.20
2007,09,22,13,01,16.20
2007,09,22,13,02,16.20
2007,09,22,13,03,16.10
2007,09,22,13,04,16.10
2007,09,22,13,05,16.00
2007,09,22,13,06,15.90
2007,09,22,13,07,15.90
2007,09,22,13,08,15.90
2007,09,22,13,09,15.90
2007,09,22,13,10,15.90
2007,09,22,13,11,15.80
2007,09,22,13,12,15.80
2007,09,22,13,13,15.80
2007,09,22,13,14,15.80
2007,09,22,13,15,15.80
2007,09,22,13,16,15.80
2007,09,22,13,17,15.70
2007,09,22,13,18,15.60
2007,09,22,13,19,15.50
2007,09,22,13,20,15.40
2007,09,22,13,21,15.30
2007,09,22,13,22,15.30
2007,09,22,13,23,15.30
2007,09,22,13,24,15.30
2007,09,22,13,25,15.30
2007,09,22,13,26,15.30
2007,09,22,13,27,15.20
2007,09,22,13,28,15.20
2007,09,22,13,29,15.10
2007,09,22,13,30,15.10
2007,09,22,13,31,15.10
2007,09,22,13,32,15.00
2007,09,22,13,33,14.90
2007,09,22,13,34,14.90
2007,09,22,13,35,14.80
2007,09,22,13,36,14.80
2007,09,22,13,37,14.70
2007,09,22,13,38,14.70
2007,09,22,13,39,14.60
2007,09,22,13,40,14.60
2007,09,22,13,41,14.60
2007,09,22,13,42,14.50
2007,09,22,13,43,14.50
2007,09,22,13,44,14.40
2007,09,22,13,45,14.40
2007,09,22,13,46,14.40
2007,09,22,13,47,14.40
2007,09,22,13,48,14.40
2007,09,22,13,49,14.40
2007,09,22,13,50,14.40
2007,09,22,13,51,14.40
2007,09,22,13,52,14.30
2007,09,22,13,53,14.30
2007,09,22,13,54,14.30
2007,09,22,13,55,14.30
2007,09,22,13,56,14.20
2007,09,22,13,57,14.20
2007,09,22,13,58,14.20
2007,09,22,13,59,14.20
2007,09,22,14,00,14.20
2007,09,22,14,01,14.20
2007,09,22,14,02,14.10
2007,09,22,14,03,14.10
2007,09,22,14,04,14.10
2007,09,22,14,05,14.10
2007,09,22,14,06,14.10
2007,09,22,14,07,14.10
2007,09,22,14,08,14.10
2007,09,22,14,09,14.10
2007,09,22,14,10,14.10
2007,09,22,14,11,14.10
2007,09,22,14,12,14.20
2007,09,22,14,13,14.20
2007,09,22,14,14,14.20
2007,09,22,14,15,14.20
2007,09,22,14,16,14.20
2007,09,22,14,17,14.20
2007,09,22,14,18,14.20
2007,09,22,14,19,14.20
2007,09,22,14,20,14.20
2007,09,22,14,21,14.20
2007,09,22,14,22,14.20
2007,09,22,14,23,14.20
2007,09,22,14,24,14.20
2007,09,22,14,25,14.20
2007,09,22,14,26,14.20
2007,09,22,14,27,14.20
2007,09,22,14,28,14.20
2007,09,22,14,29,14.20
2007,09,22,14,30,14.20
2007,09,22,14,31,14.20
2007,09,22,14,32,14.20
2007,09,22,14,33,14.20
2007,09,22,14,34,14.20
2007,09,22,14,35,14.20
2007,09,22,14,36,14.20
2007,09,22,14,37,14.20
2007,09,22,14,38,14.20
2007,09,22,14,39,14.20
2007,09,22,14,40,14.30
2007,09,22,14,41,14.30
2007,09,22,14,42,14.30
2007,09,22,14,43,14.30
2007,09,22,14,44,14.30
2007,09,22,14,45,14.30
2007,09,22,14,46,14.30
2007,09,22,14,47,14.30
2007,09,22,14,48,14.30
2007,09,22,14,49,14.20
2007,09,22,14,50,14.20
2007,09,22,14,51,14.20
2007,09,22,14,52,14.20
2007,09,22,14,53,14.20
2007,09,22,14,54,14.10
2007,09,22,14,55,14.10
2007,09,22,14,56,14.00
2007,09,22,14,57,14.00
2007,09,22,14,58,14.00
2007,09,22,14,59,13.90
2007,09,22,15,00,13.90
2007,09,22,15,01,13.90
2007,09,22,15,02,13.80
2007,09,22,15,03,13.80
2007,09,22,15,04,13.70
2007,09,22,15,05,13.70
2007,09,22,15,06,13.70
2007,09,22,15,07,13.70
2007,09,22,15,08,13.60
2007,09,22,15,09,13.60
2007,09,22,15,10,13.60
2007,09,22,15,11,13.60
2007,09,22,15,12,13.50
2007,09,22,15,13,13.50
2007,09,22,15,14,13.50
2007,09,22,15,15,13.50
2007,09,22,15,16,13.40
2007,09,22,15,17,13.40
2007,09,22,15,18,13.40
2007,09,22,15,19,13.30
2007,09,22,15,20,13.30
2007,09,22,15,21,13.30
2007,09,22,15,22,13.30
2007,09,22,15,23,13.30
2007,09,22,15,24,13.30
2007,09,22,15,25,13.30
2007,09,22,15,26,13.30
2007,09,22,15,27,13.30
2007,09,22,15,28,13.30
2007,09,22,15,29,13.40
2007,09,22,15,30,13.40
2007,09,22,15,31,13.40
2007,09,22,15,32,13.50
2007,09,22,15,33,13.50
2007,09,22,15,34,13.50
2007,09,22,15,35,13.60
2007,09,22,15,36,13.60
2007,09,22,15,37,13.60
2007,09,22,15,38,13.60
2007,09,22,15,39,13.70
2007,09,22,15,40,13.70
2007,09,22,15,41,13.70
2007,09,22,15,42,13.70
2007,09,22,15,43,13.70
2007,09,22,15,44,13.70
2007,09,22,15,45,13.70
2007,09,22,15,46,13.70
2007,09,22,15,47,13.70
2007,09,22,15,48,13.70
2007,09,22,15,49,13.80
2007,09,22,15,50,13.80
2007,09,22,15,51,13.80
2007,09,22,15,52,13.80
2007,09,22,15,53,13.80
2007,09,22,15,54,13.80
2007,09,22,15,55,13.80
2007,09,22,15,56,13.80
2007,09,22,15,57,13.80
2007,09,22,15,58,13.70
2007,09,22,15,59,13.70
2007,09,22,16,00,13.70
2007,09,22,16,01,13.70
2007,09,22,16,02,13.70
2007,09,22,16,03,13.60
2007,09,22,16,04,13.60
2007,09,22,16,05,13.60
2007,09,22,16,06,13.60
2007,09,22,16,07,13.60
2007,09,22,16,08,13.60
2007,09,22,16,09,13.60
2007,09,22,16,10,13.60
2007,09,22,16,11,13.60
2007,09,22,16,12,13.70
2007,09,22,16,13,13.60
2007,09,22,16,14,13.60
2007,09,22,16,15,13.60
2007,09,22,16,16,13.60
2007,09,22,16,17,13.60
2007,09,22,16,18,13.70
2007,09,22,16,19,13.70
2007,09,22,16,20,13.80
2007,09,22,16,21,13.90
2007,09,22,16,22,14.00
2007,09,22,16,23,14.10
2007,09,22,16,24,14.20
2007,09,22,16,25,14.30
2007,09,22,16,26,14.40
2007,09,22,16,27,14.40
2007,09,22,16,28,14.50
2007,09,22,16,29,14.60
2007,09,22,16,30,14.60
2007,09,22,16,31,14.70
2007,09,22,16,32,14.80
2007,09,22,16,33,14.90
2007,09,22,16,34,14.90
2007,09,22,16,35,15.00
2007,09,22,16,36,15.10
2007,09,22,16,37,15.20
2007,09,22,16,38,15.30
2007,09,22,16,39,15.30
2007,09,22,16,40,15.40
2007,09,22,16,41,15.40
2007,09,22,16,42,15.40
2007,09,22,16,43,15.30
2007,09,22,16,44,15.30
2007,09,22,16,45,15.30
2007,09,22,16,46,15.20
2007,09,22,16,47,15.20
2007,09,22,16,48,15.20
2007,09,22,16,49,15.10
2007,09,22,16,50,15.10
2007,09,22,16,51,15.00
2007,09,22,16,52,15.00
2007,09,22,16,53,15.00
2007,09,22,16,54,15.10
2007,09,22,16,55,15.10
2007,09,22,16,56,15.20
2007,09,22,16,57,15.30
2007,09,22,16,58,15.30
2007,09,22,16,59,15.40
2007,09,22,17,00,15.50
2007,09,22,17,01,15.60
2007,09,22,17,02,15.70
2007,09,22,17,03,15.80
2007,09,22,17,04,15.80
2007,09,22,17,05,15.90
2007,09,22,17,06,16.00
2007,09,22,17,07,16.10
2007,09,22,17,08,16.10
2007,09,22,17,09,16.10
2007,09,22,17,10,16.20
2007,09,22,17,11,16.20
2007,09,22,17,12,16.20
2007,09,22,17,13,16.20
2007,09,22,17,14,16.20
2007,09,22,17,15,16.20
2007,09,22,17,16,16.10
2007,09,22,17,17,16.10
2007,09,22,17,18,16.10
2007,09,22,17,19,16.10
2007,09,22,17,20,16.20
2007,09,22,17,21,16.20
2007,09,22,17,22,16.20
2007,09,22,17,23,16.20
2007,09,22,17,24,16.20